Vorticity
6 6 8 10 11 10 9 9 9 9 8 7 7 6 5 4 6 7 5 3 4 6 7 7 7 7 6 5 6 6 6 6 6 7 7 8 9 9 10 9 7 5 6 5 5 6 6 6 6 6 4 3 5 3 2 5 10 9 6 3 2 7 6 5 4 5 8 7 7 7 9 9 9 9 9 9 6 12 12 10 15 10 9 11 5 0 4 7
8 6 7 9 10 10 10 10 9 9 8 7 7 7 6 4 6 8 6 4 4 6 7 7 7 7 6 6 6 6 7 6 7 8 7 9 10 10 9 7 6 5 6 6 8 7 5 7 6 5 4 2 9 10 -4 -6 6 12 7 1 6 7 4 5 4 6 7 7 6 6 8 8 8 10 9 9 9 11 9 14 16 9 17 19 8 6 10 9
10 8 6 7 8 9 9 10 10 10 10 9 8 7 7 5 5 8 7 4 4 6 7 7 7 7 7 7 7 7 7 7 8 8 9 9 9 9 7 6 6 5 6 7 8 8 4 4 4 4 5 2 7 9 5 4 4 6 5 2 6 6 5 7 3 5 7 6 7 5 7 6 8 9 7 9 8 8 7 11 14 10 11 7 7 12 9 7
12 9 7 5 7 9 9 10 11 11 11 10 10 9 10 7 5 8 7 5 5 7 8 7 8 7 7 7 8 8 7 7 7 8 9 8 8 8 7 7 6 5 6 6 5 6 5 3 4 5 2 -0 2 -0 2 12 5 -1 8 6 2 4 5 7 6 6 7 6 7 6 7 5 6 7 6 8 6 9 11 9 11 10 7 4 9 12 10 11
13 10 7 6 6 7 9 10 10 11 11 11 11 11 12 9 5 8 8 5 5 7 8 7 8 8 8 8 7 6 6 7 8 8 8 8 8 6 6 6 5 5 5 6 5 4 4 2 2 5 7 7 6 3 -0 7 2 -10 1 6 2 6 5 5 7 6 7 8 7 6 6 5 7 7 4 6 4 7 12 8 8 10 12 13 11 8 11 13
13 9 8 8 7 7 7 8 9 10 10 10 11 11 13 11 6 8 9 5 5 8 8 8 9 8 7 7 6 5 7 8 8 7 7 7 7 5 5 5 5 6 5 6 6 6 6 4 2 4 8 7 2 7 5 6 13 3 1 6 2 4 5 6 7 7 7 7 6 6 7 6 8 8 4 7 5 6 10 7 6 10 14 13 8 8 10 8
11 8 8 9 9 9 7 7 7 8 9 10 11 11 13 12 7 9 9 5 6 8 9 9 9 8 6 6 5 4 7 8 6 6 6 5 6 5 4 5 6 5 5 5 5 6 7 4 6 6 6 6 0 5 6 4 16 12 2 7 4 -1 3 6 5 7 8 6 6 5 6 4 6 7 3 6 5 5 9 6 4 7 12 11 8 11 9 6
9 7 8 9 10 11 10 7 5 7 8 9 9 11 14 12 8 9 8 5 7 9 9 10 9 6 4 5 5 5 7 7 6 6 6 5 5 6 5 6 6 4 4 4 5 4 5 4 4 6 9 12 8 3 7 8 8 7 1 5 5 -1 4 8 5 6 7 5 4 4 6 4 5 7 6 8 6 6 9 7 3 3 9 9 7 11 10 8
8 7 9 10 10 11 12 8 4 5 8 9 9 12 16 12 8 10 8 5 7 9 9 10 8 5 5 5 4 6 7 7 8 6 6 6 4 5 5 5 4 4 5 4 5 4 4 5 1 6 7 7 9 2 6 8 1 7 8 3 4 4 5 6 5 6 5 3 3 4 7 6 4 4 9 10 5 7 8 3 1 3 7 7 7 10 9 9
7 7 8 9 10 11 13 9 5 4 7 10 9 12 16 11 9 10 7 5 8 9 9 10 6 4 5 4 4 7 8 7 6 4 5 5 4 5 3 4 5 4 6 4 5 4 3 5 1 6 5 2 9 4 5 6 0 7 6 2 6 7 6 5 6 8 6 5 4 3 4 8 7 5 9 8 4 10 9 3 4 5 8 6 6 10 10 12
7 6 7 9 10 11 13 10 5 3 6 10 10 12 14 10 11 10 6 6 9 9 9 8 6 6 7 6 7 8 7 5 4 4 4 3 4 5 3 4 4 3 5 3 4 4 3 4 2 5 5 5 10 6 6 6 4 7 5 12 12 3 6 4 3 6 5 8 6 2 4 8 10 8 7 4 4 12 11 5 3 4 10 9 7 9 10 13
10 6 6 8 8 11 13 10 5 3 5 12 12 11 11 10 12 10 5 6 10 10 8 7 6 6 7 6 6 5 5 4 3 4 4 3 2 3 5 4 3 3 4 4 4 4 3 3 3 6 4 5 8 8 9 7 6 5 3 9 9 10 13 3 6 6 2 10 8 2 4 6 11 10 7 6 5 7 11 9 4 6 11 10 8 9 11 13
14 9 6 7 7 9 13 11 6 2 4 12 15 11 9 10 13 10 5 7 10 9 8 6 5 6 6 5 5 5 5 3 2 2 3 4 3 2 4 3 3 3 2 4 5 3 4 3 4 5 3 6 8 6 8 7 6 11 12 -2 -2 19 7 -17 2 9 -0 8 7 6 9 5 9 6 2 5 2 4 12 12 9 9 8 8 11 10 11 11
14 14 8 6 7 7 11 13 8 2 2 9 16 14 10 10 14 10 4 8 11 9 7 5 5 6 4 3 5 5 2 1 2 3 3 3 3 3 2 3 5 4 4 5 4 4 4 4 6 5 3 5 6 4 8 10 4 6 8 -7 -2 21 -4 -28 -1 6 -1 7 3 5 8 4 7 4 5 7 1 9 16 10 9 10 7 9 12 10 11 9
10 16 13 7 6 7 10 13 10 5 1 5 13 15 13 13 14 8 4 9 10 8 6 4 5 3 2 2 3 4 1 1 2 2 3 3 3 4 4 6 5 5 6 4 4 5 4 6 6 4 4 4 7 7 4 5 1 -1 6 4 5 12 0 -2 13 4 -1 9 6 5 5 5 9 5 5 5 3 14 13 4 8 9 8 9 11 10 11 11
8 12 15 10 7 6 8 12 12 8 3 3 8 11 12 14 14 6 4 10 9 7 5 4 4 2 3 4 1 2 2 2 3 2 3 3 4 6 5 5 5 5 4 4 5 4 5 8 6 5 7 5 6 7 8 9 9 11 14 10 5 5 4 10 16 7 3 6 4 6 6 4 8 8 8 5 6 16 11 4 6 6 7 8 12 15 10 10
9 10 14 12 8 6 7 10 13 11 6 3 5 7 9 13 12 5 5 9 8 6 4 3 3 2 1 1 2 3 3 3 2 2 4 5 5 5 4 4 4 4 3 4 5 5 7 7 6 6 6 10 6 6 14 9 8 16 9 1 6 10 1 5 23 18 5 8 7 7 8 7 14 17 10 4 5 12 10 5 7 6 8 7 10 16 11 10
10 10 12 12 9 7 7 9 11 12 10 6 5 5 8 13 10 5 5 8 7 5 4 1 2 2 0 2 4 3 3 3 3 5 5 6 5 4 5 4 3 4 4 4 6 8 9 7 9 6 5 12 -1 -1 14 -5 -7 16 11 2 9 7 -9 -6 20 13 -9 2 10 5 7 12 14 2 -6 5 10 10 9 6 9 10 8 8 9 12 11 9
10 10 10 11 10 9 8 9 10 12 12 10 8 5 7 11 10 6 5 7 8 5 3 3 3 -0 0 5 5 2 3 4 4 6 6 6 6 5 5 4 4 5 4 6 8 8 8 7 8 4 8 11 -7 3 20 -5 -2 26 19 0 -3 1 -1 -5 8 6 -7 2 10 5 6 11 8 -8 -8 13 12 3 6 8 12 15 8 6 6 9 10 7
9 9 10 10 10 9 8 9 9 11 11 11 11 9 9 11 10 7 5 7 7 4 2 4 5 -1 -2 4 5 4 4 5 5 6 7 6 5 5 6 5 5 6 5 7 8 9 12 9 8 5 6 11 7 10 8 -8 6 28 18 2 -4 1 9 11 11 7 6 10 8 6 7 9 10 6 10 18 12 3 8 8 9 12 9 5 4 9 9 5
8 9 10 10 10 9 9 9 9 9 10 12 12 12 13 12 11 8 6 7 6 2 1 2 4 3 0 2 3 4 3 4 6 5 5 5 5 5 6 6 6 7 8 8 8 10 13 9 8 9 6 10 10 2 -2 1 12 14 6 4 8 6 4 9 -2 -17 -2 14 11 7 7 7 5 9 15 11 4 3 6 6 6 10 9 5 5 6 7 7
7 8 9 10 11 10 9 10 9 9 9 10 11 13 14 11 11 10 6 6 6 5 4 2 2 3 4 3 2 3 3 4 4 5 6 5 6 6 7 8 7 8 8 9 9 8 10 9 8 6 6 12 6 -2 6 16 15 10 6 4 9 6 1 7 -3 -16 0 16 16 8 3 9 10 13 21 12 -1 -1 4 6 7 10 8 6 8 6 4 8
6 7 7 9 11 10 10 9 8 9 8 9 10 11 13 12 13 12 8 6 6 6 5 4 4 4 5 4 4 3 2 3 3 4 6 5 7 7 8 7 5 8 10 10 10 6 9 13 15 12 8 11 9 5 10 12 10 9 9 3 -0 -2 -4 2 7 10 15 13 17 14 2 13 23 16 9 -1 -4 -0 3 5 5 7 6 9 15 10 3 6
7 7 6 7 8 10 11 10 9 8 7 8 8 8 9 11 12 12 10 8 7 8 6 4 4 5 5 4 4 3 2 4 4 5 5 6 7 6 6 7 10 13 11 8 7 7 10 0 1 15 15 12 13 13 9 6 7 7 8 7 7 10 1 -7 1 11 15 9 10 10 -1 5 20 15 -4 -10 2 7 4 5 4 4 7 11 16 12 7 7
9 8 8 7 7 8 9 10 11 10 9 7 6 8 7 8 11 10 11 10 7 7 8 7 5 4 4 3 3 3 4 4 3 6 7 7 7 6 9 10 11 9 6 9 8 11 13 -5 -9 9 14 10 11 12 7 5 8 4 3 6 15 24 8 -6 3 6 6 6 -0 -3 1 4 5 2 1 6 11 6 4 12 13 13 14 15 17 16 15 13
11 10 10 9 8 8 7 8 10 10 11 10 8 8 6 7 8 7 9 10 9 8 6 7 8 7 6 3 3 4 4 7 8 8 7 8 9 8 10 9 8 8 7 11 12 13 15 5 4 13 13 10 8 7 4 6 11 4 4 9 12 21 13 8 16 6 -2 5 -3 -5 14 22 3 -3 10 16 8 -1 7 22 25 21 13 9 14 12 11 16
9 9 10 11 10 10 10 9 8 9 10 10 11 10 9 8 7 7 9 9 13 15 10 6 5 9 10 8 9 7 6 9 12 10 8 10 9 8 10 11 12 11 8 10 13 12 10 5 7 11 14 12 7 7 7 13 17 5 5 12 7 6 3 5 12 3 1 8 3 6 19 14 1 5 12 7 2 -1 7 17 18 16 7 3 16 16 7 9
7 8 9 9 9 10 11 11 10 10 9 9 10 10 10 10 9 10 9 6 6 10 14 13 7 4 6 8 9 10 8 6 7 11 15 14 12 12 12 11 11 9 9 11 6 4 11 13 9 7 9 8 9 11 4 10 19 2 -8 1 10 9 -1 3 11 7 9 9 4 12 14 -0 -6 -1 -2 2 6 -3 1 17 14 11 10 2 9 16 8 7
8 8 8 8 9 9 9 10 10 10 9 10 10 9 10 9 10 11 10 10 6 2 5 10 11 9 8 8 8 9 9 8 10 12 14 14 13 13 11 10 12 9 11 11 -0 -4 9 16 10 9 11 7 11 10 -4 9 21 0 -8 1 13 20 15 12 10 6 11 11 6 7 2 -3 2 8 11 17 14 1 10 25 12 4 12 8 5 9 9 9
12 11 9 9 9 8 9 8 10 10 9 10 9 10 10 9 13 10 8 15 14 10 9 6 12 16 12 11 10 11 11 11 13 12 12 14 12 11 11 10 10 8 10 12 9 5 7 10 5 10 14 3 7 8 -3 21 25 -10 -10 7 8 12 13 8 4 1 4 7 15 19 11 4 2 6 11 12 14 15 18 14 0 -1 9 10 9 10 9 9
14 13 13 13 10 11 11 8 9 9 9 11 9 11 9 9 16 5 -4 5 8 15 20 10 10 16 13 13 12 12 13 11 12 11 10 11 9 10 11 9 9 12 11 10 12 10 9 14 10 10 12 3 10 9 -7 14 24 -1 1 14 11 8 6 12 18 11 3 3 10 13 14 14 9 5 3 0 11 20 18 8 -2 2 12 15 17 17 13 8
12 13 14 15 15 16 14 13 13 9 8 11 9 11 10 8 12 1 -1 14 10 11 22 12 7 12 12 13 11 10 12 12 12 11 9 10 11 11 11 11 12 7 3 10 15 7 2 11 15 19 21 14 16 16 9 13 11 8 19 18 12 12 6 12 18 7 1 6 10 10 10 10 7 6 4 0 4 6 9 14 8 6 9 8 13 19 19 14
11 12 12 14 15 16 16 15 15 13 10 9 8 11 12 7 5 0 9 23 7 -3 13 14 9 12 12 12 12 12 12 11 12 12 11 11 9 10 11 11 13 11 8 16 16 6 0 -2 0 14 20 17 19 18 18 11 -10 -6 13 7 5 10 1 3 11 8 3 5 13 18 14 7 1 6 12 11 10 5 6 14 16 14 5 -6 2 14 17 17
9 10 10 12 11 12 14 13 16 18 12 9 8 9 8 4 9 11 7 11 7 0 8 13 12 13 11 13 13 12 12 9 9 13 12 10 11 18 19 5 4 15 11 7 6 7 17 9 -1 17 26 19 21 19 14 5 -8 -2 1 -8 3 16 6 -0 4 5 5 8 8 1 3 12 14 18 21 11 6 6 7 12 16 19 13 -3 -0 11 13 18
9 10 10 10 10 10 11 11 16 19 15 13 9 6 3 -3 5 13 3 7 20 19 16 15 16 15 11 15 11 6 14 12 5 9 11 13 9 8 17 11 12 20 7 2 9 5 13 15 5 11 11 -1 -2 12 27 19 3 9 12 2 2 9 10 6 4 5 7 11 6 0 13 24 19 19 14 2 3 10 9 6 3 11 19 6 -3 5 10 17
10 10 10 10 10 8 8 10 14 19 18 13 6 5 6 -1 1 6 6 13 14 10 16 16 13 12 6 14 12 1 14 15 3 9 13 12 3 -3 10 12 10 19 5 -5 7 8 7 10 9 5 -0 7 11 9 20 18 3 11 22 16 4 3 10 7 7 10 7 10 12 7 6 3 7 13 -0 -11 -2 6 8 6 4 9 15 6 0 5 5 9
12 10 10 11 10 8 8 8 12 19 16 10 10 6 -5 -5 7 10 6 9 3 3 15 9 8 11 -1 8 14 -2 7 14 6 16 17 6 2 5 12 1 -8 10 13 -2 -2 16 22 5 5 17 5 12 27 15 7 6 4 4 -2 -7 1 15 20 11 9 12 7 13 16 7 4 9 19 17 -1 -2 10 10 7 6 5 7 5 1 -1 -0 2 8
12 11 10 10 10 9 9 8 11 18 16 11 10 0 -8 3 22 18 1 1 4 9 13 2 6 16 2 4 12 1 7 11 3 14 17 4 5 12 14 12 7 6 13 14 -2 5 25 -3 -16 12 9 -2 10 17 18 8 2 12 6 -6 -2 5 10 8 6 9 10 11 9 15 26 20 10 5 -2 8 22 19 5 -2 2 6 5 6 2 -3 6 16
9 11 11 10 9 8 10 10 8 11 20 18 1 -9 3 19 28 21 4 4 8 3 8 10 8 16 16 9 8 9 13 7 -1 9 14 6 5 8 6 14 23 10 6 20 4 -7 13 1 -17 1 13 13 11 11 23 12 -3 10 12 5 9 6 6 9 1 -2 6 5 4 16 18 1 1 10 4 1 14 18 6 1 8 7 2 9 12 3 4 15
6 9 11 10 8 8 9 11 9 11 19 14 -3 -2 11 14 16 15 5 7 7 -6 -1 8 -0 10 24 12 5 14 14 5 -1 1 7 10 6 3 2 1 8 10 9 15 10 4 10 9 6 3 -0 12 14 7 19 20 8 8 0 -1 16 16 10 11 4 4 10 5 4 11 9 7 17 14 3 4 11 14 8 3 5 7 6 10 16 9 -2 5
9 9 12 10 7 7 8 10 13 13 11 4 3 15 20 10 9 12 7 5 2 -3 -0 -5 -9 6 14 5 11 17 8 8 13 3 0 13 13 5 17 24 12 5 12 11 7 11 13 8 9 8 0 1 1 0 8 7 6 10 5 1 6 6 7 9 7 9 8 3 8 11 -0 -4 -6 -11 4 20 9 -0 3 3 1 6 10 9 9 8 1 1
13 13 12 10 9 8 4 6 9 5 3 6 13 21 19 12 9 9 11 6 -4 2 8 -4 -4 7 3 1 12 11 4 6 10 7 2 6 5 -9 -3 20 17 7 12 11 -1 2 15 17 7 2 9 3 -7 -1 1 -3 7 16 12 5 -4 -5 4 7 5 8 6 4 9 7 2 7 6 1 11 16 5 4 6 2 1 2 12 22 15 5 4 2
12 12 11 9 10 9 4 6 8 4 4 6 10 13 12 15 15 7 7 3 -5 3 11 2 -0 -0 -2 3 -2 -6 9 8 -3 6 10 2 7 5 -7 1 10 7 6 4 1 0 8 22 16 5 11 9 5 13 1 -10 8 20 15 11 2 0 7 6 3 4 4 6 5 1 6 21 26 15 4 -1 3 11 9 7 12 6 4 17 16 4 4 7
10 10 9 8 9 9 7 6 4 6 10 6 4 10 9 11 17 12 8 5 -3 3 9 6 5 0 3 11 -3 -14 4 7 -1 10 8 -12 -6 7 5 3 5 6 4 2 6 4 -4 4 12 8 10 9 9 19 9 -7 -2 2 1 11 14 9 7 8 9 6 3 4 5 7 2 -4 -2 -1 5 14 14 12 10 9 17 17 2 -1 6 8 5 7
11 10 9 8 7 7 8 7 5 8 14 7 3 8 7 7 12 12 15 14 6 8 9 3 8 10 5 7 5 -1 2 0 -3 4 4 -5 -4 5 13 15 6 0 7 9 6 3 -3 -1 3 3 7 7 2 9 16 13 5 -5 -8 6 20 18 8 9 12 9 10 9 8 14 6 -6 -0 7 14 18 6 7 19 12 8 17 13 5 5 0 0 10
10 9 9 9 8 8 8 7 8 9 12 10 7 9 7 8 11 9 11 14 11 14 12 2 9 18 11 7 8 5 5 6 1 -3 -1 0 -1 1 11 19 12 2 5 10 6 3 4 3 3 2 3 5 1 -1 7 10 4 2 -0 -8 -5 3 3 5 7 3 7 10 7 9 6 6 17 18 15 11 -5 -2 19 16 2 5 13 19 15 1 4 18
8 6 8 10 9 9 9 9 8 5 7 10 11 11 8 7 11 10 9 11 10 12 12 7 10 11 7 11 14 7 5 11 11 8 7 5 1 -1 -2 1 7 8 7 6 5 5 6 5 5 7 5 5 7 6 11 14 8 12 17 1 -9 -1 -5 -7 3 7 8 13 11 8 5 12 24 13 3 11 9 4 10 7 -3 -3 4 15 20 14 11 10
10 7 8 9 8 9 9 10 11 7 6 8 7 8 9 7 9 9 10 12 9 7 10 8 9 9 4 7 12 11 8 6 8 14 15 12 12 14 9 3 7 12 12 12 12 7 7 9 8 8 6 2 3 0 3 13 15 15 17 6 -1 6 0 -3 6 6 5 13 17 12 4 8 20 12 -1 13 24 15 9 6 0 -1 4 10 17 20 14 7
9 8 8 8 7 9 7 7 11 9 7 9 7 7 8 7 8 8 9 12 9 9 11 7 8 16 13 8 8 8 7 8 11 13 11 8 7 7 8 8 9 8 6 11 14 6 6 10 9 8 7 4 4 2 -4 -2 1 3 9 6 1 4 6 7 8 2 0 5 5 10 14 11 14 10 -1 4 15 12 7 5 -1 -2 4 11 15 14 12 11
7 7 8 8 7 8 7 7 9 8 7 9 9 11 10 9 11 10 9 9 7 11 14 5 6 14 11 8 11 9 8 15 19 14 9 10 10 7 6 6 9 9 4 4 8 9 10 12 9 10 11 7 6 7 3 -1 -4 -2 4 6 5 6 6 5 5 7 11 5 -9 -6 4 2 3 8 0 -6 -3 -1 -2 -3 -3 -2 4 11 11 7 11 15
7 7 7 8 8 7 8 9 7 6 8 9 9 9 9 10 11 10 9 10 9 12 12 4 6 12 8 6 11 6 1 8 15 13 9 11 14 15 13 10 10 13 12 9 8 11 14 15 14 14 13 11 12 11 8 7 8 10 11 8 7 7 6 8 12 14 15 8 -3 -4 2 -0 -3 0 3 5 3 -5 -12 -7 0 5 13 17 11 7 14 17
8 7 7 7 7 7 8 7 6 5 7 9 9 7 7 9 10 8 8 12 12 12 13 9 9 12 10 10 12 9 6 8 10 10 10 11 13 15 15 14 14 14 16 16 14 13 14 14 15 15 12 12 16 17 15 11 10 13 12 10 12 10 7 7 9 11 12 11 4 -1 5 8 -1 -5 6 18 16 1 -6 3 10 12 16 16 6 5 10 8
Height
5882 5883 5884 5886 5887 5888 5889 5890 5891 5892 5894 5895 5897 5898 5899 5900 5902 5902 5904 5905 5906 5907 5908 5908 5909 5910 5910 5911 5911 5912 5912 5913 5913 5914 5914 5915 5915 5915 5916 5916 5916 5916 5917 5917 5917 5917 5917 5917 5916 5916 5916 5916 5915 5915 5916 5916 5916 5916 5917 5917 5915 5915 5914 5913 5913 5913 5912 5912 5911 5910 5908 5907 5906 5906 5906 5906 5906 5906 5906 5907 5908 5908 5906 5905 5907 5908 5908 5908
5881 5882 5884 5885 5886 5887 5888 5889 5890 5891 5893 5894 5896 5897 5898 5900 5901 5902 5903 5904 5906 5907 5907 5908 5909 5909 5910 5911 5911 5912 5913 5913 5913 5914 5914 5915 5915 5916 5916 5917 5917 5917 5917 5918 5918 5918 5918 5917 5917 5917 5917 5917 5916 5917 5918 5918 5917 5917 5917 5916 5915 5915 5914 5913 5913 5913 5912 5912 5911 5910 5909 5908 5906 5906 5906 5906 5907 5906 5906 5906 5907 5908 5906 5906 5906 5907 5908 5907
5880 5881 5883 5884 5885 5886 5887 5888 5889 5891 5892 5893 5895 5896 5897 5899 5900 5901 5902 5904 5905 5906 5907 5908 5909 5909 5910 5911 5912 5912 5913 5913 5914 5914 5915 5915 5916 5916 5917 5917 5917 5918 5918 5918 5918 5918 5918 5918 5918 5917 5918 5917 5917 5918 5919 5919 5919 5918 5917 5917 5916 5915 5914 5914 5913 5913 5913 5912 5912 5911 5910 5908 5907 5907 5906 5907 5906 5905 5906 5906 5906 5907 5907 5908 5908 5908 5908 5907
5879 5880 5882 5883 5884 5885 5887 5888 5889 5890 5891 5892 5894 5895 5897 5898 5899 5901 5902 5903 5905 5906 5907 5908 5908 5909 5910 5911 5912 5912 5913 5913 5914 5914 5915 5915 5916 5917 5918 5918 5918 5918 5919 5919 5919 5919 5919 5919 5919 5918 5918 5917 5918 5919 5920 5920 5920 5918 5918 5918 5917 5916 5914 5914 5913 5913 5912 5912 5911 5911 5910 5909 5908 5907 5907 5908 5907 5905 5905 5906 5906 5907 5907 5908 5908 5908 5907 5906
5878 5880 5881 5882 5884 5885 5886 5887 5888 5889 5890 5892 5893 5894 5896 5897 5898 5900 5901 5903 5904 5905 5906 5907 5908 5909 5910 5911 5912 5912 5913 5913 5914 5914 5915 5916 5917 5917 5918 5918 5919 5919 5919 5920 5920 5920 5919 5919 5919 5919 5919 5918 5919 5921 5921 5920 5920 5919 5919 5918 5917 5916 5915 5914 5913 5913 5912 5912 5911 5911 5910 5909 5908 5908 5907 5908 5908 5906 5906 5905 5906 5906 5906 5906 5907 5907 5907 5906
5877 5879 5880 5882 5883 5884 5885 5887 5888 5889 5890 5891 5892 5893 5895 5896 5898 5899 5901 5902 5904 5905 5906 5907 5908 5909 5910 5911 5912 5912 5913 5914 5914 5915 5915 5916 5917 5918 5918 5919 5919 5919 5920 5920 5920 5920 5920 5920 5919 5919 5919 5919 5921 5922 5921 5921 5920 5921 5919 5918 5918 5916 5915 5915 5913 5913 5912 5911 5911 5910 5910 5909 5909 5908 5907 5906 5907 5907 5906 5905 5905 5905 5905 5905 5905 5906 5906 5906
5877 5878 5880 5881 5882 5883 5885 5886 5887 5888 5889 5890 5892 5893 5894 5895 5897 5898 5900 5902 5903 5904 5906 5907 5908 5909 5910 5911 5911 5912 5913 5914 5914 5915 5916 5916 5917 5918 5919 5919 5920 5920 5920 5920 5920 5920 5920 5920 5920 5920 5919 5920 5921 5921 5921 5921 5920 5921 5919 5918 5918 5916 5915 5915 5914 5913 5912 5911 5910 5910 5910 5909 5909 5908 5907 5906 5906 5906 5906 5905 5904 5905 5905 5904 5905 5905 5905 5905
5877 5878 5879 5880 5882 5883 5884 5886 5887 5888 5889 5890 5891 5892 5893 5895 5896 5898 5899 5901 5903 5904 5905 5906 5908 5909 5910 5911 5912 5912 5913 5914 5914 5915 5916 5917 5918 5918 5919 5920 5920 5920 5920 5921 5921 5921 5921 5920 5920 5920 5920 5920 5921 5921 5921 5921 5921 5920 5919 5918 5918 5917 5916 5915 5914 5913 5912 5911 5910 5910 5909 5909 5909 5908 5908 5906 5905 5904 5904 5905 5904 5904 5904 5904 5904 5904 5904 5905
5876 5878 5879 5880 5881 5882 5883 5885 5886 5887 5888 5889 5890 5892 5893 5894 5896 5897 5899 5901 5902 5904 5905 5906 5907 5908 5910 5911 5912 5912 5913 5914 5915 5915 5916 5917 5918 5918 5919 5920 5920 5920 5921 5921 5921 5921 5921 5921 5921 5921 5920 5920 5921 5921 5921 5922 5921 5920 5920 5919 5918 5917 5917 5916 5915 5914 5913 5911 5910 5910 5910 5910 5909 5909 5909 5907 5906 5904 5903 5903 5903 5902 5903 5903 5903 5904 5904 5904
5876 5877 5878 5879 5880 5882 5883 5884 5886 5887 5888 5889 5890 5891 5892 5894 5895 5897 5898 5900 5902 5903 5905 5906 5907 5908 5910 5911 5912 5913 5914 5915 5915 5916 5916 5917 5918 5919 5919 5920 5920 5920 5921 5921 5921 5921 5921 5921 5921 5921 5921 5921 5921 5921 5921 5921 5921 5920 5920 5919 5918 5917 5917 5917 5916 5915 5914 5911 5910 5910 5911 5910 5910 5909 5909 5908 5907 5905 5902 5902 5903 5902 5903 5903 5903 5903 5904 5904
5875 5877 5878 5879 5880 5881 5882 5884 5885 5886 5887 5888 5889 5891 5892 5893 5895 5896 5898 5900 5902 5903 5904 5906 5907 5909 5910 5911 5912 5913 5914 5915 5916 5916 5917 5917 5918 5919 5919 5920 5920 5921 5921 5921 5921 5921 5921 5921 5921 5921 5921 5921 5921 5921 5921 5921 5920 5920 5919 5919 5918 5917 5917 5917 5916 5915 5914 5912 5910 5910 5911 5910 5910 5910 5909 5908 5906 5905 5904 5903 5903 5904 5903 5903 5903 5903 5903 5904
5875 5876 5877 5878 5880 5881 5882 5883 5885 5886 5887 5888 5889 5890 5892 5893 5895 5896 5898 5900 5901 5903 5904 5906 5907 5909 5910 5911 5912 5913 5914 5915 5916 5916 5917 5917 5918 5919 5919 5920 5920 5920 5921 5921 5921 5921 5921 5921 5921 5921 5921 5921 5920 5920 5920 5920 5920 5920 5919 5919 5918 5917 5917 5918 5916 5915 5914 5913 5910 5910 5911 5910 5910 5910 5909 5908 5905 5904 5904 5903 5903 5904 5904 5903 5903 5903 5903 5903
5874 5875 5877 5878 5879 5880 5882 5883 5884 5885 5887 5888 5889 5890 5891 5893 5894 5896 5898 5899 5901 5902 5904 5906 5907 5909 5910 5911 5912 5913 5914 5915 5915 5916 5917 5918 5918 5919 5919 5920 5920 5920 5920 5921 5921 5921 5921 5921 5921 5921 5921 5920 5920 5920 5920 5920 5920 5920 5919 5920 5920 5918 5918 5918 5917 5915 5914 5913 5910 5909 5910 5910 5910 5910 5909 5908 5905 5904 5904 5903 5903 5903 5903 5903 5902 5902 5902 5902
5874 5875 5876 5878 5879 5880 5881 5882 5884 5885 5886 5887 5888 5890 5891 5893 5894 5896 5898 5899 5901 5902 5904 5906 5907 5909 5910 5911 5912 5913 5914 5914 5915 5916 5917 5917 5918 5918 5919 5919 5920 5920 5920 5920 5920 5920 5921 5921 5921 5920 5920 5920 5920 5920 5920 5920 5920 5920 5920 5921 5924 5923 5919 5918 5917 5916 5915 5914 5911 5910 5910 5910 5910 5910 5908 5907 5905 5903 5903 5903 5903 5902 5901 5902 5901 5901 5902 5901
5874 5875 5876 5877 5879 5880 5881 5882 5883 5885 5886 5887 5888 5889 5891 5892 5894 5896 5898 5899 5901 5902 5904 5906 5907 5908 5909 5911 5912 5913 5913 5914 5915 5916 5917 5917 5918 5918 5919 5919 5919 5919 5920 5920 5920 5920 5920 5920 5920 5920 5920 5920 5920 5920 5919 5920 5921 5922 5923 5924 5927 5925 5919 5918 5918 5916 5915 5914 5912 5910 5910 5909 5909 5909 5907 5907 5905 5903 5903 5902 5902 5901 5900 5901 5902 5901 5901 5901
5874 5875 5876 5877 5878 5880 5881 5882 5883 5884 5886 5887 5888 5889 5891 5892 5894 5896 5897 5899 5901 5902 5904 5905 5907 5908 5909 5910 5911 5912 5913 5914 5915 5916 5916 5917 5917 5918 5918 5918 5919 5919 5919 5919 5919 5919 5919 5920 5920 5920 5920 5920 5920 5920 5920 5921 5925 5927 5926 5926 5928 5925 5920 5918 5918 5917 5915 5913 5912 5911 5910 5908 5907 5908 5907 5906 5905 5903 5903 5902 5901 5901 5900 5899 5900 5900 5900 5899
5874 5875 5876 5877 5878 5879 5881 5882 5883 5884 5885 5887 5888 5889 5891 5892 5894 5896 5897 5899 5900 5902 5904 5905 5906 5908 5909 5910 5911 5912 5913 5914 5915 5915 5916 5916 5917 5917 5917 5918 5918 5918 5918 5918 5919 5919 5919 5919 5919 5919 5920 5920 5920 5920 5920 5922 5927 5929 5927 5927 5927 5925 5922 5918 5916 5916 5915 5913 5912 5911 5910 5908 5907 5906 5905 5906 5906 5903 5902 5902 5901 5900 5900 5899 5899 5899 5899 5898
5873 5874 5875 5877 5878 5879 5880 5881 5882 5884 5885 5887 5888 5889 5891 5892 5894 5895 5897 5898 5900 5902 5903 5904 5906 5907 5909 5910 5911 5912 5913 5914 5914 5915 5915 5916 5916 5916 5917 5917 5917 5917 5917 5918 5918 5918 5918 5918 5918 5919 5919 5919 5919 5920 5920 5923 5927 5927 5925 5924 5924 5924 5923 5920 5916 5914 5914 5913 5912 5911 5911 5911 5910 5907 5905 5905 5906 5904 5901 5901 5901 5899 5899 5899 5898 5897 5896 5896
5873 5874 5875 5876 5878 5879 5880 5881 5882 5883 5885 5886 5888 5889 5890 5892 5893 5895 5896 5898 5900 5902 5903 5904 5906 5907 5908 5909 5910 5911 5912 5913 5914 5914 5915 5915 5915 5916 5916 5916 5916 5917 5916 5917 5917 5917 5917 5918 5918 5918 5918 5918 5919 5919 5920 5923 5924 5922 5921 5920 5921 5922 5923 5922 5918 5914 5913 5913 5912 5911 5911 5912 5912 5908 5905 5904 5905 5905 5902 5899 5899 5900 5899 5898 5896 5895 5894 5894
5873 5874 5875 5876 5877 5879 5880 5881 5882 5883 5885 5886 5887 5889 5890 5891 5893 5894 5896 5898 5899 5901 5902 5904 5905 5906 5907 5908 5910 5911 5912 5912 5913 5913 5914 5914 5915 5915 5915 5915 5916 5916 5916 5916 5916 5916 5916 5916 5917 5917 5917 5917 5918 5920 5921 5922 5921 5919 5919 5919 5920 5921 5922 5922 5918 5915 5915 5914 5912 5911 5911 5911 5910 5908 5905 5903 5903 5904 5903 5900 5898 5898 5898 5898 5896 5894 5894 5892
5873 5874 5875 5876 5877 5878 5880 5881 5882 5883 5884 5886 5887 5888 5890 5891 5893 5894 5896 5897 5898 5899 5901 5903 5904 5905 5907 5908 5909 5910 5911 5911 5912 5913 5913 5913 5914 5914 5914 5914 5915 5915 5915 5915 5915 5915 5915 5916 5916 5916 5916 5916 5917 5920 5920 5919 5918 5918 5917 5918 5919 5919 5921 5921 5917 5915 5915 5915 5913 5911 5911 5910 5909 5908 5907 5905 5903 5902 5902 5902 5900 5898 5896 5897 5897 5895 5893 5892
5873 5874 5875 5876 5877 5878 5879 5881 5882 5883 5884 5885 5887 5888 5889 5890 5892 5894 5895 5897 5898 5899 5901 5902 5903 5905 5906 5907 5908 5909 5910 5910 5911 5912 5912 5912 5913 5913 5913 5913 5914 5913 5913 5914 5913 5914 5914 5915 5915 5915 5915 5915 5916 5918 5917 5916 5916 5916 5916 5916 5918 5919 5920 5920 5917 5915 5915 5914 5912 5911 5911 5911 5908 5907 5907 5906 5904 5902 5901 5901 5901 5898 5896 5895 5897 5895 5892 5891
5873 5874 5875 5876 5877 5878 5879 5880 5882 5883 5884 5885 5886 5888 5889 5890 5891 5893 5895 5896 5898 5899 5900 5902 5903 5904 5905 5907 5908 5908 5908 5909 5910 5911 5911 5911 5912 5912 5912 5912 5912 5912 5912 5913 5913 5913 5913 5914 5914 5914 5914 5914 5915 5915 5915 5915 5915 5915 5915 5915 5917 5919 5920 5921 5918 5916 5914 5913 5913 5912 5911 5910 5907 5906 5905 5905 5904 5902 5901 5900 5899 5898 5896 5894 5896 5895 5892 5889
5873 5874 5875 5876 5877 5878 5879 5880 5881 5883 5884 5885 5886 5887 5888 5890 5891 5893 5894 5896 5897 5899 5900 5901 5902 5904 5905 5906 5906 5907 5908 5908 5908 5909 5910 5910 5910 5910 5911 5911 5911 5911 5911 5911 5912 5912 5913 5914 5914 5913 5913 5913 5914 5914 5914 5914 5914 5914 5915 5915 5917 5918 5920 5921 5918 5914 5914 5912 5911 5912 5911 5910 5908 5905 5904 5904 5903 5902 5900 5899 5898 5897 5896 5895 5895 5895 5893 5891
5872 5874 5875 5876 5877 5878 5879 5880 5881 5882 5884 5885 5886 5887 5888 5890 5891 5893 5894 5895 5897 5898 5899 5901 5902 5902 5904 5904 5905 5906 5906 5907 5907 5908 5908 5909 5909 5909 5909 5910 5910 5910 5910 5910 5911 5911 5912 5912 5912 5912 5912 5912 5913 5913 5913 5913 5913 5914 5915 5916 5916 5917 5918 5919 5916 5914 5915 5913 5911 5911 5911 5911 5909 5905 5904 5903 5901 5901 5900 5899 5898 5897 5896 5896 5894 5893 5893 5893
5872 5873 5874 5875 5876 5877 5878 5879 5881 5882 5883 5885 5886 5887 5888 5890 5891 5892 5894 5895 5896 5897 5899 5900 5901 5902 5902 5903 5904 5905 5905 5905 5906 5906 5907 5907 5907 5908 5908 5908 5909 5909 5909 5909 5910 5910 5911 5911 5910 5911 5911 5911 5912 5912 5912 5912 5913 5914 5916 5916 5917 5918 5916 5915 5914 5914 5916 5914 5913 5912 5910 5911 5909 5905 5903 5902 5900 5900 5901 5899 5898 5897 5895 5894 5893 5890 5890 5891
5872 5873 5874 5875 5876 5877 5878 5879 5880 5881 5883 5884 5885 5887 5888 5889 5891 5892 5893 5894 5896 5897 5898 5899 5900 5900 5901 5902 5903 5903 5903 5904 5904 5905 5905 5906 5906 5906 5907 5907 5908 5908 5908 5909 5909 5909 5909 5909 5909 5910 5910 5910 5911 5911 5911 5912 5912 5914 5916 5915 5916 5916 5913 5913 5914 5914 5915 5915 5914 5912 5909 5909 5908 5904 5903 5902 5900 5899 5900 5899 5897 5895 5893 5891 5891 5890 5888 5887
5871 5872 5873 5874 5875 5876 5877 5878 5880 5881 5882 5883 5885 5886 5887 5889 5890 5891 5892 5893 5895 5895 5896 5897 5898 5899 5899 5900 5901 5901 5902 5902 5902 5903 5904 5904 5904 5905 5905 5906 5906 5907 5907 5908 5908 5907 5907 5908 5908 5909 5909 5909 5909 5910 5911 5912 5912 5914 5915 5912 5911 5912 5911 5912 5912 5912 5914 5914 5914 5913 5911 5909 5906 5903 5902 5902 5900 5898 5898 5898 5895 5894 5892 5890 5890 5889 5886 5884
5870 5871 5872 5873 5875 5876 5877 5878 5879 5880 5882 5883 5884 5885 5887 5888 5890 5891 5891 5892 5894 5894 5895 5896 5897 5897 5898 5899 5900 5900 5900 5901 5901 5902 5902 5903 5903 5904 5904 5905 5905 5906 5906 5907 5907 5906 5906 5907 5907 5907 5908 5908 5908 5909 5910 5911 5912 5913 5912 5909 5909 5910 5910 5910 5910 5911 5912 5911 5912 5912 5911 5910 5907 5904 5901 5900 5899 5897 5896 5896 5894 5893 5893 5891 5889 5887 5883 5882
5870 5871 5872 5873 5874 5875 5876 5877 5878 5880 5881 5882 5883 5885 5886 5888 5889 5890 5891 5892 5892 5893 5894 5894 5895 5896 5897 5897 5898 5898 5899 5899 5900 5900 5901 5901 5902 5902 5903 5903 5904 5904 5905 5906 5906 5906 5906 5906 5906 5906 5907 5907 5907 5909 5909 5909 5910 5910 5909 5909 5909 5909 5909 5909 5910 5910 5910 5909 5909 5909 5909 5910 5910 5906 5902 5899 5898 5897 5896 5895 5893 5891 5891 5890 5889 5887 5884 5882
5870 5871 5872 5872 5873 5875 5876 5877 5878 5879 5880 5881 5883 5884 5886 5887 5888 5889 5890 5891 5892 5892 5892 5893 5894 5894 5895 5896 5896 5897 5897 5898 5899 5899 5899 5900 5900 5901 5902 5902 5903 5903 5904 5904 5905 5905 5905 5905 5906 5905 5906 5906 5907 5908 5908 5907 5908 5908 5909 5909 5909 5910 5910 5909 5909 5909 5908 5907 5908 5907 5907 5909 5908 5906 5903 5899 5896 5896 5896 5895 5893 5891 5891 5889 5889 5888 5886 5882
5870 5871 5871 5872 5873 5874 5875 5876 5877 5878 5879 5881 5882 5884 5885 5886 5888 5889 5890 5891 5892 5891 5891 5892 5893 5893 5894 5894 5895 5896 5896 5897 5898 5898 5898 5899 5899 5900 5900 5901 5901 5902 5903 5904 5905 5905 5904 5904 5904 5904 5905 5905 5906 5906 5906 5906 5907 5908 5909 5909 5909 5911 5911 5909 5908 5908 5907 5907 5908 5906 5905 5906 5906 5904 5902 5898 5895 5897 5897 5895 5893 5892 5892 5890 5888 5888 5887 5885
5870 5871 5872 5872 5873 5874 5875 5875 5876 5877 5879 5880 5882 5883 5884 5886 5887 5888 5891 5892 5892 5891 5891 5891 5892 5892 5893 5893 5894 5895 5895 5896 5897 5897 5897 5898 5898 5899 5899 5900 5901 5902 5903 5904 5906 5907 5907 5905 5903 5903 5903 5903 5904 5905 5905 5906 5908 5908 5909 5910 5911 5911 5910 5909 5909 5908 5907 5907 5907 5905 5904 5905 5904 5902 5900 5897 5896 5897 5897 5895 5893 5892 5892 5891 5889 5888 5888 5887
5870 5871 5872 5872 5873 5874 5874 5875 5876 5877 5878 5880 5881 5882 5884 5885 5886 5889 5892 5892 5891 5891 5890 5891 5891 5892 5892 5893 5893 5894 5895 5896 5896 5896 5897 5897 5898 5898 5899 5900 5900 5901 5902 5904 5905 5907 5909 5908 5905 5904 5903 5902 5903 5903 5904 5906 5909 5910 5911 5911 5912 5911 5910 5909 5909 5909 5909 5908 5906 5905 5904 5904 5902 5901 5899 5897 5896 5897 5896 5895 5893 5891 5890 5890 5887 5886 5887 5886
5871 5871 5872 5873 5873 5874 5874 5875 5875 5876 5878 5879 5880 5881 5883 5884 5885 5889 5892 5891 5890 5891 5891 5890 5891 5892 5892 5893 5894 5895 5895 5896 5896 5896 5896 5897 5898 5899 5901 5902 5901 5900 5901 5904 5904 5904 5907 5909 5907 5905 5904 5903 5902 5902 5903 5904 5907 5910 5910 5910 5912 5912 5910 5908 5908 5908 5908 5907 5907 5905 5904 5901 5899 5900 5898 5896 5897 5897 5895 5894 5892 5890 5889 5887 5887 5885 5885 5885
5871 5872 5872 5873 5874 5874 5875 5875 5875 5876 5877 5878 5879 5881 5883 5884 5885 5887 5889 5889 5890 5891 5891 5891 5891 5892 5893 5894 5895 5896 5896 5897 5896 5896 5896 5897 5898 5899 5901 5902 5901 5899 5900 5901 5902 5902 5905 5908 5908 5906 5904 5902 5901 5902 5902 5903 5906 5908 5908 5910 5910 5909 5909 5908 5907 5906 5906 5906 5905 5903 5901 5899 5898 5899 5897 5896 5897 5896 5895 5893 5889 5888 5886 5884 5885 5884 5882 5883
5871 5872 5873 5873 5874 5874 5875 5875 5876 5876 5877 5877 5879 5881 5883 5884 5884 5885 5887 5887 5889 5890 5891 5893 5893 5894 5896 5896 5897 5896 5896 5896 5896 5896 5897 5897 5898 5899 5899 5899 5898 5897 5897 5898 5899 5900 5901 5903 5905 5905 5905 5903 5901 5901 5903 5904 5905 5906 5908 5909 5908 5906 5907 5906 5904 5904 5904 5904 5903 5901 5900 5898 5897 5897 5895 5895 5896 5895 5895 5892 5888 5887 5886 5883 5883 5883 5882 5883
5872 5872 5873 5873 5874 5874 5875 5876 5876 5877 5877 5878 5880 5881 5882 5882 5882 5884 5886 5886 5888 5889 5891 5893 5894 5894 5896 5898 5898 5897 5896 5897 5897 5896 5898 5898 5897 5897 5897 5897 5896 5895 5896 5897 5898 5899 5898 5899 5901 5903 5904 5904 5901 5900 5902 5903 5903 5904 5905 5906 5905 5904 5905 5904 5903 5903 5903 5902 5901 5900 5899 5897 5896 5896 5894 5894 5894 5893 5892 5891 5888 5888 5887 5885 5883 5883 5883 5882
5872 5872 5873 5873 5874 5875 5875 5876 5877 5877 5878 5879 5880 5880 5881 5882 5882 5883 5885 5885 5887 5889 5891 5893 5893 5894 5895 5896 5897 5897 5896 5897 5898 5898 5898 5896 5895 5896 5895 5895 5894 5894 5895 5896 5896 5896 5897 5898 5900 5901 5902 5904 5904 5901 5902 5903 5903 5902 5902 5903 5903 5903 5903 5902 5903 5903 5902 5901 5900 5898 5898 5896 5896 5894 5892 5892 5893 5893 5891 5891 5890 5889 5889 5886 5883 5882 5881 5881
5872 5873 5873 5874 5874 5875 5876 5877 5877 5878 5879 5879 5880 5880 5880 5881 5882 5883 5884 5885 5886 5887 5889 5890 5892 5893 5894 5894 5896 5897 5897 5897 5899 5899 5898 5896 5895 5895 5893 5892 5893 5893 5893 5895 5895 5895 5896 5897 5898 5899 5900 5902 5903 5902 5902 5903 5904 5904 5903 5903 5903 5903 5903 5902 5902 5903 5902 5901 5899 5897 5895 5894 5893 5891 5890 5891 5892 5892 5890 5890 5889 5887 5887 5887 5884 5882 5880 5878
5872 5873 5873 5874 5874 5875 5876 5877 5877 5878 5879 5879 5879 5880 5880 5881 5881 5882 5884 5884 5885 5886 5886 5888 5889 5890 5892 5894 5894 5895 5896 5896 5898 5899 5898 5896 5893 5892 5891 5890 5891 5892 5892 5894 5894 5893 5894 5894 5895 5897 5898 5900 5902 5902 5902 5902 5903 5904 5903 5903 5904 5904 5903 5902 5901 5902 5901 5900 5899 5895 5893 5892 5891 5890 5889 5890 5889 5888 5887 5887 5887 5887 5887 5886 5885 5883 5880 5877
5872 5873 5873 5874 5874 5875 5876 5877 5877 5878 5878 5878 5878 5879 5880 5881 5881 5883 5884 5884 5885 5885 5885 5886 5887 5888 5890 5891 5890 5891 5893 5894 5896 5896 5895 5894 5891 5888 5890 5890 5890 5891 5891 5892 5891 5890 5891 5892 5892 5893 5894 5896 5897 5898 5900 5901 5901 5901 5901 5902 5902 5902 5902 5901 5901 5901 5899 5899 5896 5892 5891 5891 5891 5890 5889 5888 5887 5886 5885 5885 5886 5888 5887 5884 5882 5881 5877 5875
5872 5872 5873 5874 5874 5875 5876 5876 5877 5877 5877 5878 5878 5879 5880 5880 5881 5882 5882 5883 5883 5883 5884 5884 5885 5886 5887 5887 5888 5889 5889 5890 5892 5891 5891 5892 5888 5886 5889 5889 5889 5889 5889 5889 5888 5889 5890 5890 5889 5890 5890 5891 5893 5894 5897 5898 5898 5898 5898 5899 5898 5898 5899 5899 5899 5899 5897 5895 5892 5889 5889 5889 5890 5890 5888 5887 5886 5884 5885 5886 5885 5886 5885 5882 5880 5879 5876 5872
5872 5872 5873 5874 5874 5875 5876 5876 5876 5876 5877 5878 5878 5878 5879 5879 5880 5881 5881 5881 5881 5881 5882 5883 5883 5884 5885 5885 5886 5886 5887 5888 5889 5888 5889 5889 5886 5884 5887 5888 5887 5887 5886 5887 5887 5889 5890 5887 5886 5888 5889 5889 5891 5892 5893 5893 5892 5893 5894 5896 5896 5896 5897 5897 5896 5896 5894 5891 5889 5888 5888 5887 5887 5888 5887 5885 5884 5881 5883 5885 5884 5883 5883 5880 5878 5877 5874 5872
5872 5872 5872 5873 5874 5875 5875 5876 5876 5876 5876 5877 5877 5878 5878 5878 5879 5879 5880 5881 5880 5880 5881 5881 5881 5883 5883 5883 5884 5884 5885 5886 5886 5885 5886 5886 5884 5882 5884 5886 5886 5884 5884 5887 5886 5886 5887 5885 5885 5887 5887 5887 5889 5889 5889 5890 5889 5889 5891 5893 5893 5893 5895 5895 5894 5893 5890 5888 5887 5886 5887 5887 5886 5886 5884 5883 5882 5882 5883 5883 5881 5881 5881 5879 5878 5876 5873 5872
5872 5872 5872 5873 5874 5874 5874 5875 5875 5875 5875 5876 5876 5876 5877 5877 5877 5878 5879 5879 5879 5880 5880 5880 5881 5882 5881 5881 5882 5882 5883 5883 5884 5883 5883 5884 5884 5881 5880 5884 5885 5882 5883 5885 5884 5883 5884 5883 5884 5884 5884 5886 5886 5886 5887 5888 5888 5887 5888 5889 5889 5889 5891 5891 5892 5891 5887 5885 5885 5883 5884 5886 5885 5883 5881 5880 5881 5882 5883 5882 5879 5879 5879 5878 5878 5877 5874 5873
5871 5871 5872 5872 5873 5873 5874 5874 5874 5874 5875 5875 5875 5875 5876 5876 5876 5877 5877 5877 5877 5878 5878 5878 5879 5880 5878 5878 5880 5880 5880 5880 5881 5881 5880 5881 5881 5880 5879 5882 5882 5881 5882 5882 5881 5881 5881 5880 5881 5882 5882 5883 5884 5884 5884 5885 5885 5884 5885 5885 5886 5887 5887 5888 5889 5888 5885 5883 5882 5881 5881 5882 5883 5881 5878 5877 5879 5880 5880 5881 5879 5877 5877 5878 5878 5877 5875 5873
5870 5871 5871 5872 5872 5873 5873 5873 5873 5873 5873 5874 5874 5874 5875 5875 5875 5875 5875 5875 5876 5876 5876 5876 5876 5877 5876 5876 5878 5879 5878 5877 5877 5878 5878 5877 5878 5878 5878 5879 5879 5878 5879 5879 5879 5878 5877 5877 5879 5880 5880 5880 5881 5882 5881 5881 5881 5882 5883 5883 5884 5885 5885 5885 5887 5887 5883 5881 5879 5877 5878 5879 5879 5879 5876 5876 5878 5877 5876 5878 5877 5876 5876 5877 5876 5875 5873 5872
5870 5870 5870 5871 5871 5872 5872 5872 5872 5872 5873 5873 5873 5873 5873 5873 5873 5873 5873 5874 5873 5874 5875 5874 5873 5875 5875 5875 5876 5876 5875 5874 5874 5875 5875 5875 5876 5876 5876 5876 5877 5876 5875 5875 5876 5875 5874 5875 5877 5876 5876 5876 5877 5879 5878 5878 5878 5878 5880 5881 5882 5883 5883 5883 5885 5883 5879 5878 5875 5872 5874 5875 5875 5876 5876 5876 5876 5874 5873 5874 5875 5874 5875 5875 5874 5872 5870 5870
5869 5869 5870 5870 5870 5870 5871 5871 5871 5871 5872 5872 5872 5872 5872 5871 5871 5872 5872 5872 5871 5872 5873 5871 5871 5873 5873 5872 5873 5873 5871 5872 5873 5872 5872 5872 5874 5873 5872 5873 5874 5874 5872 5872 5873 5872 5872 5873 5873 5873 5873 5873 5874 5875 5876 5875 5875 5875 5876 5877 5879 5880 5879 5880 5879 5875 5873 5875 5873 5871 5870 5870 5871 5873 5875 5875 5875 5873 5872 5872 5873 5873 5873 5873 5873 5871 5869 5869
5868 5868 5869 5869 5869 5869 5870 5870 5870 5870 5870 5870 5870 5870 5870 5870 5870 5870 5870 5870 5870 5870 5871 5869 5869 5871 5870 5869 5870 5869 5869 5870 5871 5870 5869 5869 5870 5870 5870 5870 5870 5871 5869 5869 5869 5869 5869 5869 5869 5870 5869 5869 5871 5872 5872 5872 5871 5871 5872 5874 5875 5875 5874 5875 5871 5867 5868 5872 5873 5871 5868 5866 5868 5871 5873 5874 5873 5872 5870 5870 5870 5870 5870 5870 5870 5868 5868 5868
5867 5867 5868 5868 5868 5869 5869 5869 5868 5868 5869 5869 5868 5869 5868 5868 5869 5869 5868 5868 5868 5868 5869 5868 5868 5868 5868 5867 5867 5867 5868 5868 5867 5867 5867 5867 5867 5867 5867 5867 5867 5867 5867 5867 5866 5866 5866 5865 5866 5866 5865 5865 5868 5869 5868 5868 5866 5867 5869 5870 5870 5870 5869 5868 5864 5861 5865 5869 5871 5870 5868 5865 5866 5869 5871 5872 5871 5871 5870 5867 5867 5867 5867 5868 5866 5864 5864 5865